, LA

(GMT )
Atlantis

Weather History for KATP - January, 2014

Change the Weather History Date:

Friday, January 3, 2014

  Actual Average Record
Temperature  
Mean Temperature 55 °F -  
Max Temperature 59 °F - - ()
Min Temperature 51 °F - - ()
Degree Days  
Heating Degree Days 10    
Growing Degree Days 5 (Base 50)    
Moisture  
Dew Point 41 °F    
Average Humidity 59    
Maximum Humidity 67    
Minimum Humidity 47    
Precipitation  
Precipitation 0.00 in - - ()
Sea Level Pressure  
Sea Level Pressure 30.32 in    
Wind  
Wind Speed 26 mph (NE)    
Max Wind Speed 36 mph    
Max Gust Speed 41 mph    
Visibility 6 miles    
Events      
T = Trace of Precipitation, MM = Missing Value Source: NWS Daily Summary

Daily Weather History Graph

Daily Weather History Graph

Search for Another Location

Airport or City:

Trip Planner

Search our weather history database for the weather conditions in past years. The results will help you decide how hot, cold, wet, or windy it might be!

Date:

Astronomy

Jan. 03, 2014 Rise Set
Actual Time 6:50 AM CST 5:19 PM CST
Civil Twilight 6:24 AM CST 5:44 PM CST
Nautical Twilight 5:55 AM CST 6:13 PM CST
Astronomical Twilight 5:27 AM CST 6:41 PM CST
Moon 8:31 AM CST (1/3) 8:10 PM CST (1/3)
Length of Visible Light 11h 19m
Length of Day
10h 28m
Waxing Crescent, 8% of the Moon is Illuminated
Jan 3
Waxing Crescent
Jan 7
First Quarter
Jan 15
Full
Jan 23
Last Quarter
Jan 30
New

Hourly Weather History & Observations

Time (CST) Temp. Dew Point Humidity Pressure Visibility Wind Dir Wind Speed Gust Speed Precip Events Conditions
12:15 AM 55.4 °F 37.4 °F 51% 30.29 in 7.0 mi North 35.7 mph - N/A   Mostly Cloudy
12:35 AM 55.4 °F 39.2 °F 54% 30.28 in 7.0 mi North 34.5 mph 41.4 mph N/A   Mostly Cloudy
12:55 AM 55.4 °F 35.6 °F 47% 30.29 in 7.0 mi North 34.5 mph - N/A   Mostly Cloudy
1:15 AM 55.4 °F 35.6 °F 47% 30.29 in 7.0 mi North 33.4 mph 40.3 mph N/A   Mostly Cloudy
1:35 AM 55.4 °F 35.6 °F 47% 30.29 in 7.0 mi NNE 32.2 mph 39.1 mph N/A   Overcast
1:55 AM 55.4 °F 35.6 °F 47% 30.30 in 8.0 mi NNE 31.1 mph - N/A   Mostly Cloudy
2:15 AM 55.4 °F 41.0 °F 58% 30.31 in 7.0 mi North 32.2 mph - N/A   Mostly Cloudy
2:35 AM 55.4 °F 39.2 °F 54% 30.30 in 6.0 mi North 27.6 mph 36.8 mph N/A   Haze
2:55 AM 53.6 °F 37.4 °F 54% 30.30 in 7.0 mi NNE 31.1 mph - N/A   Mostly Cloudy
3:15 AM 55.4 °F 39.2 °F 54% 30.30 in 6.0 mi North 31.1 mph - N/A   Haze
3:35 AM 53.6 °F 41.0 °F 62% 30.31 in 6.0 mi North 28.8 mph 36.8 mph N/A   Haze
3:55 AM 53.6 °F 41.0 °F 62% 30.31 in 6.0 mi North 28.8 mph 36.8 mph N/A   Haze
4:15 AM 53.6 °F 39.2 °F 58% 30.29 in 6.0 mi North 31.1 mph - N/A   Haze
4:35 AM 53.6 °F 37.4 °F 54% 30.29 in 6.0 mi North 28.8 mph 38.0 mph N/A   Haze
4:55 AM 53.6 °F 37.4 °F 54% 30.28 in 7.0 mi North 31.1 mph 36.8 mph N/A   Mostly Cloudy
5:15 AM 53.6 °F 39.2 °F 58% 30.30 in 6.0 mi North 28.8 mph 36.8 mph N/A   Haze
5:35 AM 53.6 °F 39.2 °F 58% 30.30 in 6.0 mi North 31.1 mph 40.3 mph N/A   Haze
5:55 AM 53.6 °F 35.6 °F 51% 30.32 in 6.0 mi NNE 28.8 mph 38.0 mph N/A   Haze
6:15 AM 53.6 °F 37.4 °F 54% 30.32 in 7.0 mi North 32.2 mph - N/A   Overcast
6:35 AM 51.8 °F 35.6 °F 54% 30.33 in 7.0 mi North 31.1 mph - N/A   Mostly Cloudy
6:55 AM 51.8 °F 37.4 °F 58% 30.34 in 6.0 mi North 31.1 mph - N/A   Haze
7:15 AM 51.8 °F 37.4 °F 58% 30.35 in 6.0 mi North 26.5 mph - N/A   Haze
7:35 AM 51.8 °F 39.2 °F 62% 30.35 in 6.0 mi North 24.2 mph 33.4 mph N/A   Haze
7:55 AM 51.8 °F 37.4 °F 58% 30.36 in 5.0 mi North 26.5 mph 33.4 mph N/A   Haze
8:15 AM 51.8 °F 39.2 °F 62% 30.36 in 5.0 mi North 27.6 mph - N/A   Haze
8:35 AM 51.8 °F 39.2 °F 62% 30.37 in 5.0 mi North 25.3 mph 32.2 mph N/A   Haze
8:55 AM 51.8 °F 39.2 °F 62% 30.37 in 6.0 mi NNE 27.6 mph - N/A   Haze
9:15 AM 51.8 °F 41.0 °F 67% 30.38 in 5.0 mi NNE 25.3 mph - N/A   Haze
9:35 AM 51.8 °F 39.2 °F 62% 30.38 in 5.0 mi NE 26.5 mph 35.7 mph N/A   Haze
9:55 AM 51.8 °F 39.2 °F 62% 30.38 in 5.0 mi NNE 24.2 mph 32.2 mph N/A   Haze
10:15 AM 51.8 °F 41.0 °F 67% 30.39 in 5.0 mi North 21.9 mph 29.9 mph N/A   Haze
10:35 AM 51.8 °F 41.0 °F 67% 30.38 in 5.0 mi NNE 20.7 mph 28.8 mph N/A   Haze
10:55 AM 53.6 °F 42.8 °F 67% 30.37 in 5.0 mi NNE 21.9 mph - N/A   Haze
11:15 AM 53.6 °F 42.8 °F 67% 30.37 in 5.0 mi NE 19.6 mph 27.6 mph N/A   Haze
11:35 AM 53.6 °F 42.8 °F 67% 30.35 in 5.0 mi NNE 23.0 mph - N/A   Haze
11:55 AM 53.6 °F 42.8 °F 67% 30.35 in 5.0 mi NNE 18.4 mph 25.3 mph N/A   Haze
12:15 PM 53.6 °F 41.0 °F 62% 30.34 in 6.0 mi NE 18.4 mph 25.3 mph N/A   Haze
12:35 PM 53.6 °F 42.8 °F 67% 30.34 in 5.0 mi NE 18.4 mph 26.5 mph N/A   Haze
12:55 PM 53.6 °F 42.8 °F 67% 30.33 in 5.0 mi NNE 17.3 mph 23.0 mph N/A   Haze
1:15 PM 53.6 °F 42.8 °F 67% 30.32 in 5.0 mi NE 15.0 mph 24.2 mph N/A   Haze
1:35 PM 55.4 °F 41.0 °F 58% 30.31 in 5.0 mi ENE 19.6 mph - N/A   Haze
1:55 PM 55.4 °F 41.0 °F 58% 30.31 in 5.0 mi NNE 18.4 mph - N/A   Haze
2:15 PM 55.4 °F 41.0 °F 58% 30.32 in 6.0 mi ENE 12.7 mph 20.7 mph N/A   Haze
2:35 PM 55.4 °F 42.8 °F 63% 30.31 in 5.0 mi ENE 16.1 mph - N/A   Haze
2:55 PM 55.4 °F 42.8 °F 63% 30.31 in 5.0 mi ENE 17.3 mph - N/A   Haze
3:15 PM 55.4 °F 42.8 °F 63% 30.32 in 5.0 mi NNE 13.8 mph 20.7 mph N/A   Haze
3:35 PM 55.4 °F 42.8 °F 63% 30.32 in 5.0 mi NNE 12.7 mph 19.6 mph N/A   Haze
3:55 PM 55.4 °F 42.8 °F 63% 30.30 in 5.0 mi NE 15.0 mph 23.0 mph N/A   Haze
4:15 PM 55.4 °F 41.0 °F 58% 30.30 in 6.0 mi NNE 13.8 mph 20.7 mph N/A   Haze
4:35 PM 55.4 °F 41.0 °F 58% 30.30 in 5.0 mi NE 17.3 mph - N/A   Haze
4:55 PM 55.4 °F 41.0 °F 58% 30.31 in 6.0 mi ENE 15.0 mph 23.0 mph N/A   Haze
5:15 PM 55.4 °F 42.8 °F 63% 30.31 in 5.0 mi ENE 17.3 mph 24.2 mph N/A   Haze
5:35 PM 55.4 °F 41.0 °F 58% 30.31 in 6.0 mi ENE 11.5 mph 20.7 mph N/A   Haze
5:55 PM 57.2 °F 41.0 °F 55% 30.32 in 6.0 mi East 15.0 mph - N/A   Haze
6:15 PM 57.2 °F 42.8 °F 59% 30.31 in 6.0 mi NE 16.1 mph - N/A   Haze
6:35 PM 57.2 °F 42.8 °F 59% 30.31 in 5.0 mi ENE 13.8 mph - N/A   Haze
6:55 PM 57.2 °F 42.8 °F 59% 30.31 in 5.0 mi East 19.6 mph - N/A   Haze
7:15 PM 57.2 °F 42.8 °F 59% 30.31 in 5.0 mi ENE 16.1 mph 21.9 mph N/A   Haze
7:35 PM 57.2 °F 42.8 °F 59% 30.32 in 5.0 mi NE 12.7 mph 19.6 mph N/A   Haze
7:55 PM 57.2 °F 44.6 °F 63% 30.32 in 5.0 mi ENE 15.0 mph - N/A   Haze
8:15 PM 57.2 °F 44.6 °F 63% 30.32 in 5.0 mi East 16.1 mph - N/A   Haze
8:35 PM 57.2 °F 42.8 °F 59% 30.33 in 6.0 mi ENE 13.8 mph - N/A   Haze
8:55 PM 57.2 °F 44.6 °F 63% 30.32 in 6.0 mi East 12.7 mph - N/A   Haze
9:15 PM 57.2 °F 44.6 °F 63% 30.32 in 5.0 mi ENE 17.3 mph - N/A   Haze
9:35 PM 59.0 °F 42.8 °F 55% 30.31 in 6.0 mi East 13.8 mph - N/A   Haze
9:55 PM 59.0 °F 44.6 °F 59% 30.31 in 5.0 mi ENE 13.8 mph - N/A   Haze
10:15 PM 59.0 °F 42.8 °F 55% 30.31 in 5.0 mi East 12.7 mph 20.7 mph N/A   Haze
10:35 PM 59.0 °F 42.8 °F 55% 30.31 in 5.0 mi East 11.5 mph 20.7 mph N/A   Haze
10:55 PM 59.0 °F 44.6 °F 59% 30.29 in 5.0 mi East 15.0 mph - N/A   Haze
11:15 PM 59.0 °F 44.6 °F 59% 30.28 in 6.0 mi East 15.0 mph - N/A   Haze
11:35 PM 59.0 °F 44.6 °F 59% 30.28 in 5.0 mi ESE 15.0 mph - N/A   Haze
11:55 PM 59.0 °F 42.8 °F 55% 30.27 in 6.0 mi ESE 10.4 mph - N/A   Haze